Zurück zum Katalog

ZORKIY-2M

AktivMilitärSSO
NORAD 57177·PAYLOAD·🇷🇺 Russia
Dieser Satellitenname wurde noch nicht durch offizielle Quellen bestätigt.

Gestartet Jun 27, 2023 von Vostochny Cosmodrome

Loading…

Nächste Überflüge (nächste 24 Stunden)

TLE

AktuellSource: Space-Track

Epoche: Sep 14, 2026, 14:14 UTC

1 57177U 23091M   26257.59361245  .00005354  00000-0  23790-3 0  9990
2 57177  97.4996 316.2938 0013581 157.9258 202.2565 15.21876370177591

Verfolge ZORKIY-2M in Echtzeit mit AllMySat

Download on the App Store